Nett Lake, MN

2:17 AM CST on February 08, 2016 (GMT -0600)
Orr Regional

Weather History for KORB - August, 2014

Change the Weather History Date:

Tuesday, August 19, 2014

  Actual Average Record
Temperature  
Mean Temperature 64 °F -  
Max Temperature 69 °F 72 °F 89 °F (2003)
Min Temperature 59 °F 50 °F 35 °F (2012)
Degree Days  
Heating Degree Days 1    
Growing Degree Days 14 (Base 50)    
Moisture  
Dew Point 58 °F    
Average Humidity 81    
Maximum Humidity 94    
Minimum Humidity 64    
Precipitation  
Precipitation 0.00 in - - ()
Sea Level Pressure  
Sea Level Pressure 29.72 in    
Wind  
Wind Speed 0 mph (NNW)    
Max Wind Speed 6 mph    
Max Gust Speed -    
Visibility 9 miles    
Events      
Averages and records for this station are not official NWS values.
T = Trace of Precipitation, MM = Missing Value Source: NWS Daily Summary

Daily Weather History Graph

Daily Weather History Graph

Search for Another Location

Airport or City:

Trip Planner

Search our weather history database for the weather conditions in past years. The results will help you decide how hot, cold, wet, or windy it might be!

Date:

Astronomy

Aug. 19, 2014 Rise Set
Actual Time 6:11 AM CDT 8:17 PM CDT
Civil Twilight 5:38 AM CDT 8:50 PM CDT
Nautical Twilight 4:56 AM CDT 9:32 PM CDT
Astronomical Twilight 4:09 AM CDT 10:18 PM CDT
Moon 12:56 AM CDT (8/19) 4:22 PM CDT (8/19)
Length of Visible Light 15h 12m
Length of Day
14h 05m
Waning Crescent, 29% of the Moon is Illuminated
Aug 19
Waning Crescent
Aug 25
New
Sep 2
First Quarter
Sep 8
Full
Sep 15
Last Quarter

Hourly Weather History & Observations

Time (CDT) Temp. Dew Point Humidity Pressure Visibility Wind Dir Wind Speed Gust Speed Precip Events Conditions
12:13 AM 62.6 °F 59.0 °F 88% 29.66 in 3.0 mi Calm Calm - N/A   Overcast
12:33 AM 62.6 °F 59.0 °F 88% 29.67 in 2.5 mi Calm Calm - N/A   Overcast
12:53 AM 62.6 °F 59.0 °F 88% 29.66 in 3.0 mi Calm Calm - N/A   Overcast
1:13 AM 60.8 °F 59.0 °F 94% 29.66 in 10.0 mi Calm Calm - N/A   Overcast
1:33 AM 60.8 °F 59.0 °F 94% 29.66 in 10.0 mi Calm Calm - N/A   Overcast
1:53 AM 60.8 °F 59.0 °F 94% 29.66 in 10.0 mi Calm Calm - N/A   Overcast
2:13 AM 60.8 °F 59.0 °F 94% 29.66 in 2.5 mi Calm Calm - N/A   Overcast
2:33 AM 60.8 °F 59.0 °F 94% 29.65 in 2.5 mi Calm Calm - N/A   Overcast
2:53 AM 60.8 °F 59.0 °F 94% 29.65 in 7.0 mi Calm Calm - N/A   Overcast
3:13 AM 60.8 °F 57.2 °F 88% 29.65 in 10.0 mi Calm Calm - N/A   Overcast
3:33 AM 60.8 °F 57.2 °F 88% 29.66 in 10.0 mi Calm Calm - N/A   Overcast
3:53 AM 60.8 °F 59.0 °F 94% 29.66 in 10.0 mi Calm Calm - N/A   Overcast
4:13 AM 60.8 °F 57.2 °F 88% 29.66 in 10.0 mi Calm Calm - N/A   Overcast
4:33 AM 60.8 °F 57.2 °F 88% 29.66 in 10.0 mi Calm Calm - N/A   Overcast
4:53 AM 60.8 °F 57.2 °F 88% 29.66 in 7.0 mi Calm Calm - N/A   Overcast
5:13 AM 60.8 °F 57.2 °F 88% 29.66 in 10.0 mi Calm Calm - N/A   Overcast
5:33 AM 60.8 °F 57.2 °F 88% 29.67 in 10.0 mi Calm Calm - N/A   Overcast
5:53 AM 60.8 °F 57.2 °F 88% 29.68 in 7.0 mi Calm Calm - N/A   Overcast
6:13 AM 60.8 °F 57.2 °F 88% 29.68 in 10.0 mi Calm Calm - N/A   Overcast
6:33 AM 60.8 °F 57.2 °F 88% 29.68 in 10.0 mi Calm Calm - N/A   Overcast
6:53 AM 60.8 °F 57.2 °F 88% 29.69 in 10.0 mi Calm Calm - N/A   Overcast
7:13 AM 60.8 °F 57.2 °F 88% 29.69 in 10.0 mi Calm Calm - N/A   Overcast
7:33 AM 60.8 °F 59.0 °F 94% 29.70 in 10.0 mi Calm Calm - N/A   Overcast
7:53 AM 62.6 °F 59.0 °F 88% 29.70 in 10.0 mi Calm Calm - N/A   Overcast
8:13 AM 62.6 °F 59.0 °F 88% 29.70 in 10.0 mi Calm Calm - N/A   Overcast
8:33 AM 62.6 °F 59.0 °F 88% 29.70 in 7.0 mi Calm Calm - N/A   Light Drizzle
8:53 AM 62.6 °F 59.0 °F 88% 29.71 in 10.0 mi Calm Calm - N/A   Overcast
9:13 AM 62.6 °F 59.0 °F 88% 29.71 in 10.0 mi Calm Calm - N/A   Overcast
9:33 AM 64.4 °F 59.0 °F 83% 29.71 in 10.0 mi Calm Calm - N/A   Overcast
9:53 AM 64.4 °F 57.2 °F 77% 29.71 in 10.0 mi North 3.5 mph - N/A   Mostly Cloudy
10:13 AM 64.4 °F 57.2 °F 77% 29.72 in 10.0 mi Calm Calm - N/A   Mostly Cloudy
10:33 AM 64.4 °F 57.2 °F 77% 29.71 in 10.0 mi NW 5.8 mph - N/A   Overcast
10:53 AM 64.4 °F 57.2 °F 77% 29.72 in 10.0 mi NW 4.6 mph - N/A   Overcast
11:13 AM 66.2 °F 55.4 °F 68% 29.73 in 10.0 mi NNW 3.5 mph - N/A   Overcast
11:33 AM 66.2 °F 57.2 °F 73% 29.72 in 10.0 mi NW 3.5 mph - N/A   Overcast
11:53 AM 66.2 °F 57.2 °F 73% 29.73 in 10.0 mi North 4.6 mph - N/A   Overcast
12:13 PM 69.8 °F 57.2 °F 64% 29.72 in 10.0 mi Calm Calm - N/A   Overcast
12:33 PM 68.0 °F 55.4 °F 64% 29.72 in 10.0 mi Calm Calm - N/A   Overcast
12:53 PM 68.0 °F 57.2 °F 68% 29.73 in 10.0 mi Calm Calm - N/A   Overcast
1:13 PM 66.2 °F 57.2 °F 73% 29.74 in 10.0 mi NW 3.5 mph - N/A   Overcast
1:33 PM 66.2 °F 57.2 °F 73% 29.74 in 10.0 mi Calm Calm - N/A   Overcast
1:53 PM 66.2 °F 57.2 °F 73% 29.74 in 10.0 mi North 3.5 mph - N/A   Overcast
2:13 PM 68.0 °F 57.2 °F 68% 29.75 in 10.0 mi Calm Calm - N/A   Overcast
2:33 PM 68.0 °F 57.2 °F 68% 29.75 in 10.0 mi Calm Calm - N/A   Overcast
2:56 PM 68.0 °F 57.2 °F 68% 29.74 in 10.0 mi Calm Calm - N/A   Overcast
3:19 PM 69.8 °F 57.2 °F 64% 29.74 in 10.0 mi NW 3.5 mph - N/A   Mostly Cloudy
3:33 PM 69.8 °F 57.2 °F 64% 29.74 in 10.0 mi Calm Calm - N/A   Mostly Cloudy
4:13 PM 69.8 °F 57.2 °F 64% 29.75 in 10.0 mi Calm Calm - N/A   Overcast
4:33 PM 68.0 °F 57.2 °F 68% 29.75 in 10.0 mi Calm Calm - N/A   Overcast
4:53 PM 68.0 °F 57.2 °F 68% 29.75 in 10.0 mi Calm Calm - N/A   Overcast
5:13 PM 68.0 °F 57.2 °F 68% 29.76 in 10.0 mi Calm Calm - N/A   Overcast
5:33 PM 66.2 °F 57.2 °F 73% 29.76 in 10.0 mi Calm Calm - N/A   Overcast
5:53 PM 68.0 °F 57.2 °F 68% 29.76 in 10.0 mi Calm Calm - N/A   Overcast
6:13 PM 68.0 °F 57.2 °F 68% 29.76 in 10.0 mi Calm Calm - N/A   Overcast
6:33 PM 66.2 °F 59.0 °F 78% 29.77 in 10.0 mi Calm Calm - N/A   Overcast
6:53 PM 66.2 °F 60.8 °F 83% 29.77 in 10.0 mi Calm Calm - N/A   Overcast
7:13 PM 66.2 °F 59.0 °F 78% 29.77 in 10.0 mi Calm Calm - N/A   Overcast
7:33 PM 66.2 °F 57.2 °F 73% 29.77 in 10.0 mi Calm Calm - N/A   Overcast
7:53 PM 64.4 °F 59.0 °F 83% 29.77 in 10.0 mi Calm Calm - N/A   Overcast
8:12 PM 64.4 °F 59.0 °F 83% 29.77 in 10.0 mi Calm Calm - N/A   Overcast
8:53 PM 62.6 °F 57.2 °F 82% 29.79 in 10.0 mi Calm Calm - N/A   Scattered Clouds
9:53 PM 60.8 °F 57.2 °F 88% 29.80 in 10.0 mi Calm Calm - N/A   Mostly Cloudy
10:13 PM 60.8 °F 57.2 °F 88% 29.80 in 10.0 mi Calm Calm - N/A   Overcast
10:33 PM 60.8 °F 57.2 °F 88% 29.80 in 10.0 mi Calm Calm - N/A   Overcast
10:53 PM 60.8 °F 57.2 °F 88% 29.80 in 10.0 mi Calm Calm - N/A   Mostly Cloudy
11:13 PM 60.8 °F 57.2 °F 88% 29.81 in 10.0 mi Calm Calm - N/A   Scattered Clouds
11:33 PM 59.0 °F 55.4 °F 88% 29.81 in 10.0 mi Calm Calm - N/A   Clear
11:53 PM 59.0 °F 55.4 °F 88% 29.81 in 10.0 mi Calm Calm - N/A   Clear